Torna al catalogo

CZ-4C DEB

AttivoLEO
NORAD 36417·DEBRIS·🇨🇳 China

Lanciato Mar 5, 2010 da Jiuquan Satellite Launch Center

Loading…

Prossimi Passaggi (prossime 24 ore)

TLE

AggiornatoSource: Space-Track

Epoca: Sep 14, 2026, 15:07 UTC

1 36417U 10009E   26257.63047611  .00000148  00000-0  16319-3 0  9997
2 36417  63.3633 128.0935 0541484  21.5087   1.9365 13.46495330811804

Traccia CZ-4C DEB in tempo reale con AllMySat

Download on the App Store